This demonstration page uses our WeatherBlox Daily Observations layout. Learn more.

Hourly Observations for September 29, 2016

Temp ( °F °C ) Dew Point ( °F °C ) Humidity (%) Winds ( mph kmh ) Pressure ( in mb ) Visibility ( mi km ) Precip ( " mm )
12:15 am 00:15 Clear 47 8.2 40 4.5 78 78 Calm 30.39 1029 10 16.09344 0 0
12:35 am 00:35 Clear 43 6.1 38 3.6 84 84 ENE 6 9 30.39 1029 10 16.09344 0 0
12:55 am 00:55 Clear 45 7.1 40 4.2 82 82 Calm 30.39 1029 10 16.09344 0 0
1:15 am 01:15 Clear 45 7.3 39 4 80 80 Calm 30.39 1029 10 16.09344 0 0
1:35 am 01:35 Clear 46 7.8 40 4.4 79 79 E 3 6 30.39 1029 10 16.09344 0 0
1:55 am 01:55 Clear 43 6.1 39 3.8 85 85 Calm 30.39 1029 10 16.09344 0 0
2:15 am 02:15 Clear 43 6 38 3.5 84 84 E 6 9 30.39 1029 10 16.09344 0 0
2:35 am 02:35 Clear 45 7.3 40 4.6 83 83 Calm 30.42 1030 10 16.09344 0 0
2:55 am 02:55 Clear 44 6.8 40 4.5 85 85 Calm 30.42 1030 7 11.265408 0 0
3:15 am 03:15 Clear 42 5.5 39 3.9 90 90 Calm 30.45 1031 10 16.09344 0 0
3:35 am 03:35 Clear 40 4.4 37 2.8 89 89 Calm 30.45 1031 10 16.09344 0 0
3:55 am 03:55 Clear 40 4.3 38 3.2 93 93 Calm 30.45 1031 10 16.09344 0 0
4:15 am 04:15 Clear 38 3.4 36 2.1 91 91 Calm 30.45 1031 10 16.09344 0 0
4:35 am 04:35 Clear 38 3.4 36 2.3 93 93 Calm 30.45 1031 10 16.09344 0 0
4:55 am 04:55 Clear 38 3.5 37 2.5 93 93 Calm 30.45 1031 10 16.09344 0 0
5:15 am 05:15 Clear 38 3.6 37 2.7 94 94 Calm 30.48 1032 10 16.09344 0 0
5:35 am 05:35 Clear 38 3.6 37 2.7 94 94 Calm 30.48 1032 10 16.09344 0 0
5:55 am 05:55 Clear 38 3.3 37 2.5 95 95 Calm 30.48 1032 10 16.09344 0 0
6:15 am 06:15 Clear 37 2.6 35 1.6 93 93 N 5 7 30.5 1033 10 16.09344 0 0
6:35 am 06:35 Clear 37 2.5 35 1.6 94 94 Calm 30.5 1033 10 16.09344 0 0
6:55 am 06:55 Clear 37 2.9 36 2 94 94 Calm 30.5 1033 10 16.09344 0 0
7:15 am 07:15 Clear 37 3 36 2.1 94 94 NNW 3 6 30.53 1034 10 16.09344 0 0
7:35 am 07:35 Sunny 37 2.6 35 1.7 94 94 Calm 30.53 1034 10 16.09344 0 0
7:55 am 07:55 Sunny 37 3 36 2.2 95 95 Calm 30.53 1034 10 16.09344 0 0
8:15 am 08:15 Sunny 38 3.5 37 2.6 94 94 Calm 30.53 1034 10 16.09344 0 0
8:35 am 08:35 Sunny 43 5.9 41 5.2 95 95 Calm 30.5 1033 10 16.09344 0 0
8:55 am 08:55 Sunny 46 7.5 43 6.3 92 92 Calm 30.48 1032 10 16.09344 0 0
9:15 am 09:15 Sunny 49 9.5 45 7.3 86 86 Calm 30.48 1032 10 16.09344 0 0
9:35 am 09:35 Sunny 52 11 46 7.7 80 80 Calm 30.45 1031 7 11.265408 0 0
9:55 am 09:55 Sunny 54 12.2 46 7.7 74 74 Calm 30.48 1032 10 16.09344 0 0
10:15 am 10:15 Sunny 55 12.8 46 7.5 70 70 Calm 30.48 1032 10 16.09344 0 0
10:35 am 10:35 Sunny 57 13.9 45 7.2 64 64 SSW 3 6 30.45 1031 10 16.09344 0 0
10:55 am 10:55 Sunny 58 14.5 45 7 61 61 Calm 30.42 1030 10 16.09344 0 0
11:15 am 11:15 Sunny 59 14.8 45 7 60 60 Calm 30.42 1030 10 16.09344 0 0
11:35 am 11:35 Sunny 60 15.3 43 6.2 55 55 Calm 30.42 1030 10 16.09344 0 0
11:55 am 11:55 Sunny 61 16 42 5.8 51 51 Calm 30.42 1030 10 16.09344 0 0
12:15 pm 12:15 Sunny 62 16.6 42 5.7 49 49 ENE 3 6 30.42 1030 10 16.09344 0 0
12:35 pm 12:35 Sunny 63 17.3 42 5.4 46 46 SE 5 7 30.39 1029 10 16.09344 0 0
12:55 pm 12:55 Sunny 64 17.9 40 4.6 42 42 E 6 9 30.36 1028 10 16.09344 0 0
1:15 pm 13:15 Sunny 65 18.1 40 4.4 41 41 NE 7 11 30.36 1028 10 16.09344 0 0
1:35 pm 13:35 Sunny 66 18.7 40 4.4 39 39 Calm 30.36 1028 10 16.09344 0 0
1:55 pm 13:55 Sunny 66 19.1 40 4.4 38 38 E 6 9 30.33 1027 10 16.09344 0 0
2:15 pm 14:15 Sunny 67 19.3 40 4.4 38 38 SE 6 9 30.33 1027 10 16.09344 0 0
2:35 pm 14:35 Sunny 67 19.6 38 3.6 35 35 SE 5 7 30.3 1026 10 16.09344 0 0
2:55 pm 14:55 Sunny 68 20 38 3.5 34 34 SE 6 9 30.27 1025 10 16.09344 0 0
3:15 pm 15:15 Sunny 69 20.5 39 3.8 33 33 SE 9 15 30.27 1025 10 16.09344 0 0
3:35 pm 15:35 Sunny 68 20.1 38 3.5 34 34 SE 3 6 30.27 1025 10 16.09344 0 0
3:55 pm 15:55 Sunny 69 20.5 38 3.2 32 32 Calm 30.27 1025 10 16.09344 0 0
4:15 pm 16:15 Sunny 69 20.7 37 2.7 31 31 E 6 9 30.24 1024 10 16.09344 0 0
4:35 pm 16:35 Sunny 69 20.6 39 3.8 33 33 E 9 15 30.24 1024 10 16.09344 0 0
4:55 pm 16:55 Sunny 69 20.8 39 3.8 33 33 S 5 7 30.24 1024 10 16.09344 0 0
5:15 pm 17:15 Sunny 69 20.8 39 4 33 33 ESE 5 7 30.24 1024 10 16.09344 0 0
5:35 pm 17:35 Sunny 69 20.6 39 4.1 34 34 SE 9 15 30.24 1024 10 16.09344 0 0
5:55 pm 17:55 Sunny 68 20.2 39 3.8 34 34 SSE 7 11 30.24 1024 10 16.09344 0 0
6:15 pm 18:15 Sunny 68 20 41 5.1 38 38 S 8 13 30.24 1024 10 16.09344 0 0
6:35 pm 18:35 Sunny 67 19.3 42 5.5 41 41 SSE 7 11 30.24 1024 10 16.09344 0 0
6:55 pm 18:55 Sunny 65 18.3 42 5.8 44 44 SSE 6 9 30.27 1025 10 16.09344 0 0
7:15 pm 19:15 Sunny 61 16.3 43 6 51 51 SSE 6 9 30.27 1025 10 16.09344 0 0
7:35 pm 19:35 Clear 57 14 42 5.7 58 58 ESE 5 7 30.3 1026 10 16.09344 0 0
7:55 pm 19:55 Clear 55 13 43 6 63 63 SE 6 9 30.3 1026 7 11.265408 0 0
8:15 pm 20:15 Clear 52 11.2 42 5.4 68 68 SE 6 9 30.33 1027 7 11.265408 0 0
8:35 pm 20:35 Clear 50 10.1 41 5.1 71 71 ESE 7 11 30.33 1027 7 11.265408 0 0
8:55 pm 20:55 Clear 49 9.5 41 5 74 74 ESE 6 9 30.33 1027 7 11.265408 0 0
9:15 pm 21:15 Clear 50 10.1 42 5.3 72 72 SE 6 9 30.33 1027 10 16.09344 0 0
9:35 pm 21:35 Clear 47 8.6 40 4.7 77 77 SE 5 7 30.36 1028 10 16.09344 0 0
9:55 pm 21:55 Clear 47 8.6 41 4.8 77 77 SSE 5 7 30.36 1028 10 16.09344 0 0
10:15 pm 22:15 Clear 45 7.2 39 4.1 81 81 SSE 5 7 30.36 1028 10 16.09344 0 0
10:35 pm 22:35 Clear 45 7.4 39 4.1 80 80 SE 7 11 30.36 1028 10 16.09344 0 0
10:55 pm 22:55 Clear 44 6.7 39 3.9 83 83 SE 5 7 30.36 1028 10 16.09344 0 0
11:15 pm 23:15 Clear 46 7.8 40 4.7 81 81 SSE 3 6 30.36 1028 10 16.09344 0 0
11:35 pm 23:35 Clear 47 8.3 41 5.1 80 80 Calm 30.36 1028 10 16.09344 0 0
11:55 pm 23:55 Clear 46 8 41 4.8 80 80 Calm 30.36 1028 10 16.09344 0 0

Powered by AerisWeather